Tracking 18850 objects as of 22-Nov-2017
HD Live streaming from Space Station
objects crossing your sky now

FENGYUN 1C DEB

Track FENGYUN 1C DEB now!
10-day predictions


NORAD ID: 33721
Int'l Code: 1999-025DHJ
Perigee: 596.0 km
Apogee: 783.5 km
Inclination: 98.8 °
Period: 98.4 minutes
Semi major axis: 7060 km
RCS: 0.0011 m2 (small)
Launch date: May 10, 1999
Source: People's Republic of China (PRC)
Launch site: Taiyaun Space Center, China (TSC)

Note: This is SATELLITE DEBRIS
aabbcc
Your satellite tracking list
Your tracking list is empty




NASA's NSSDC Master Catalog

Two Line Element Set (TLE):
1 33721U 99025DHJ 17324.50221927  .00000873  00000-0  15991-3 0  9992
2 33721  98.7927 216.5759 0132782 203.7566 155.7469 14.63267526546562
Source of the keplerian elements: AFSPC